�������l�o���
Date,Time,MP-1(��Sv/h),MP-2(��Sv/h),MP-3(��Sv/h),MP-4(��Sv/h),MP-5(��Sv/h),MP-6(��Sv/h),MP-7(��Sv/h),MP-8(��Sv/h),����,����(m/s),���J
2024/05/12,00:00,0.507,0.772,0.487,0.967,0.697,0.315,0.551,0.516,��,8.2,��
2024/05/12,00:10,0.506,0.773,0.485,0.967,0.700,0.314,0.552,0.514,��,8.4,��
2024/05/12,00:20,0.505,0.774,0.486,0.965,0.699,0.313,0.551,0.515,��,8.6,��
2024/05/12,00:30,0.508,0.773,0.487,0.966,0.698,0.314,0.551,0.514,��,7.5,��
2024/05/12,00:40,0.505,0.774,0.485,0.966,0.698,0.314,0.552,0.515,��,7.0,��
2024/05/12,00:50,0.506,0.776,0.486,0.965,0.699,0.314,0.551,0.515,��,6.7,��
2024/05/12,01:00,0.507,0.774,0.486,0.965,0.699,0.313,0.552,0.515,��,8.1,��
2024/05/12,01:10,0.506,0.774,0.486,0.965,0.696,0.315,0.551,0.515,��,7.1,��
2024/05/12,01:20,0.505,0.772,0.485,0.965,0.699,0.313,0.553,0.516,��,8.3,��
2024/05/12,01:30,0.507,0.773,0.485,0.965,0.698,0.314,0.551,0.515,��,8.2,��
2024/05/12,01:40,0.507,0.773,0.485,0.966,0.698,0.314,0.551,0.515,��,8.4,��
2024/05/12,01:50,0.506,0.772,0.485,0.965,0.700,0.313,0.552,0.515,��,7.1,��
2024/05/12,02:00,0.507,0.774,0.487,0.965,0.700,0.315,0.554,0.516,��,7.4,��
2024/05/12,02:10,0.506,0.773,0.487,0.966,0.700,0.313,0.552,0.516,��,8.6,��
2024/05/12,02:20,0.507,0.774,0.486,0.968,0.700,0.314,0.551,0.514,��,8.1,��
2024/05/12,02:30,0.507,0.774,0.487,0.966,0.700,0.314,0.554,0.514,��,7.6,��
2024/05/12,02:40,0.507,0.774,0.484,0.966,0.698,0.313,0.552,0.516,��,6.5,��
2024/05/12,02:50,0.507,0.775,0.485,0.967,0.700,0.314,0.552,0.515,��,7.0,��
2024/05/12,03:00,0.507,0.773,0.486,0.965,0.700,0.314,0.553,0.515,��,7.2,��
2024/05/12,03:10,0.507,0.773,0.486,0.967,0.698,0.313,0.551,0.514,��,6.8,��
2024/05/12,03:20,0.505,0.775,0.487,0.966,0.698,0.312,0.552,0.515,��,6.5,��
2024/05/12,03:30,0.506,0.775,0.485,0.964,0.699,0.313,0.552,0.514,��,6.4,��
2024/05/12,03:40,0.506,0.774,0.487,0.966,0.699,0.315,0.552,0.513,��,6.4,��
2024/05/12,03:50,0.507,0.773,0.486,0.966,0.698,0.314,0.555,0.516,��,6.8,��
2024/05/12,04:00,0.506,0.776,0.486,0.966,0.700,0.314,0.551,0.515,��,6.2,��
2024/05/12,04:10,0.507,0.776,0.487,0.963,0.700,0.314,0.553,0.515,��,5.7,��
2024/05/12,04:20,0.507,0.771,0.486,0.966,0.696,0.313,0.553,0.515,��,5.7,��
2024/05/12,04:30,0.508,0.776,0.485,0.966,0.699,0.316,0.553,0.515,��,3.2,��
2024/05/12,04:40,0.506,0.772,0.486,0.968,0.700,0.314,0.553,0.515,��,3.1,��
2024/05/12,04:50,0.507,0.775,0.487,0.965,0.699,0.313,0.553,0.515,��,2.6,��
2024/05/12,05:00,0.506,0.771,0.486,0.967,0.699,0.314,0.553,0.515,��,3.1,��
2024/05/12,05:10,0.509,0.773,0.485,0.966,0.700,0.314,0.551,0.516,-,CALM,��
2024/05/12,05:20,0.506,0.772,0.487,0.964,0.697,0.315,0.554,0.516,��,2.6,��
2024/05/12,05:30,0.507,0.775,0.487,0.968,0.699,0.314,0.553,0.514,��,2.3,��
2024/05/12,05:40,0.506,0.773,0.486,0.967,0.698,0.314,0.555,0.516,��,3.6,��
2024/05/12,05:50,0.507,0.773,0.487,0.965,0.699,0.314,0.553,0.516,��,1.1,��
2024/05/12,06:00,0.506,0.775,0.487,0.967,0.699,0.315,0.554,0.517,���쓌,1.2,��
2024/05/12,06:10,0.507,0.775,0.485,0.965,0.699,0.314,0.554,0.517,�쓌,3.7,��
2024/05/12,06:20,0.508,0.775,0.488,0.965,0.699,0.314,0.554,0.515,��쓌,6.1,��
2024/05/12,06:30,0.506,0.772,0.487,0.966,0.700,0.313,0.555,0.515,��쓌,4.0,��
2024/05/12,06:40,0.508,0.773,0.487,0.967,0.700,0.312,0.555,0.516,�쓌,4.2,��
2024/05/12,06:50,0.507,0.774,0.487,0.967,0.698,0.312,0.555,0.518,��쓌,4.4,��
2024/05/12,07:00,0.506,0.773,0.489,0.967,0.699,0.312,0.555,0.517,��쓌,8.2,��
2024/05/12,07:10,0.506,0.771,0.487,0.964,0.698,0.312,0.555,0.516,��,3.7,��
2024/05/12,07:20,0.506,0.772,0.487,0.967,0.699,0.313,0.554,0.517,��쐼,3.8,��
2024/05/12,07:30,0.505,0.772,0.487,0.968,0.699,0.313,0.555,0.515,��쓌,5.2,��
2024/05/12,07:40,0.504,0.770,0.487,0.967,0.700,0.312,0.554,0.516,��,4.5,��
2024/05/12,07:50,0.506,0.771,0.489,0.969,0.700,0.313,0.552,0.515,��,4.4,��
2024/05/12,08:00,0.507,0.769,0.486,0.968,0.699,0.314,0.554,0.516,��쓌,6.2,��
2024/05/12,08:10,0.505,0.773,0.486,0.969,0.697,0.313,0.555,0.515,��쓌,5.0,��
2024/05/12,08:20,0.506,0.772,0.486,0.967,0.699,0.312,0.555,0.514,��쓌,7.9,��
2024/05/12,08:30,0.506,0.772,0.486,0.969,0.699,0.313,0.554,0.514,��쓌,8.9,��
2024/05/12,08:40,0.506,0.772,0.486,0.970,0.700,0.314,0.554,0.514,��,7.5,��
2024/05/12,08:50,0.507,0.773,0.486,0.969,0.700,0.314,0.553,0.515,��쐼,7.0,��
2024/05/12,09:00,0.507,0.773,0.486,0.968,0.699,0.314,0.554,0.514,��,9.4,��
2024/05/12,09:10,0.505,0.773,0.486,0.967,0.699,0.314,0.554,0.515,��,8.1,��
2024/05/12,09:20,0.507,0.773,0.484,0.970,0.699,0.314,0.554,0.512,��,4.7,��
2024/05/12,09:30,0.505,0.774,0.486,0.968,0.699,0.313,0.555,0.514,��쓌,7.1,��
2024/05/12,09:40,0.506,0.774,0.486,0.967,0.698,0.313,0.553,0.515,��쓌,9.3,��
2024/05/12,09:50,0.508,0.774,0.486,0.970,0.699,0.314,0.555,0.514,��쓌,9.4,��
2024/05/12,10:00,0.505,0.772,0.486,0.967,0.701,0.315,0.554,0.515,��쓌,6.7,��
2024/05/12,10:10,0.507,0.773,0.486,0.966,0.701,0.314,0.553,0.516,��쓌,8.4,��
2024/05/12,10:20,0.506,0.774,0.484,0.969,0.701,0.314,0.552,0.514,��쓌,7.2,��
2024/05/12,10:30,0.506,0.775,0.486,0.968,0.698,0.314,0.553,0.514,��쓌,9.1,��
2024/05/12,10:40,0.507,0.772,0.485,0.970,0.701,0.314,0.552,0.513,��쓌,10.2,��
2024/05/12,10:50,0.507,0.773,0.487,0.969,0.698,0.314,0.553,0.514,��,10.7,��
2024/05/12,11:00,0.506,0.774,0.486,0.969,0.701,0.314,0.552,0.515,��,10.8,��
2024/05/12,11:10,0.506,0.774,0.487,0.967,0.701,0.314,0.552,0.515,��,9.3,��
2024/05/12,11:20,0.508,0.775,0.487,0.968,0.701,0.314,0.552,0.515,��쓌,8.7,��
2024/05/12,11:30,0.507,0.775,0.487,0.969,0.703,0.314,0.552,0.515,��쓌,13.1,��
2024/05/12,11:40,0.507,0.774,0.486,0.967,0.699,0.313,0.551,0.516,��쓌,13.0,��
2024/05/12,11:50,0.507,0.775,0.486,0.966,0.700,0.313,0.551,0.514,��쓌,12.4,��
2024/05/12,12:00,0.506,0.776,0.487,0.966,0.701,0.313,0.551,0.513,��,13.8,��
2024/05/12,12:10,0.508,0.773,0.486,0.966,0.700,0.315,0.551,0.514,��쓌,14.1,��
2024/05/12,12:20,0.507,0.776,0.486,0.967,0.703,0.316,0.554,0.514,��,14.6,��
2024/05/12,12:30,0.506,0.775,0.486,0.970,0.701,0.315,0.551,0.515,��쓌,13.9,��
2024/05/12,12:40,0.506,0.775,0.487,0.972,0.701,0.314,0.553,0.515,��쓌,15.0,��
2024/05/12,12:50,0.508,0.775,0.486,0.969,0.702,0.314,0.551,0.515,��쓌,12.7,��
2024/05/12,13:00,0.508,0.773,0.486,0.967,0.702,0.315,0.552,0.515,��쓌,13.8,��
2024/05/12,13:10,0.507,0.776,0.486,0.969,0.701,0.314,0.552,0.514,��쓌,12.4,��
2024/05/12,13:20,0.507,0.775,0.487,0.969,0.701,0.315,0.550,0.515,��쓌,12.8,��
2024/05/12,13:30,0.508,0.775,0.487,0.968,0.701,0.315,0.552,0.517,��쓌,13.3,��
2024/05/12,13:40,0.507,0.775,0.488,0.969,0.701,0.315,0.553,0.516,��쓌,12.4,��
2024/05/12,13:50,0.508,0.774,0.485,0.967,0.702,0.314,0.551,0.517,��쓌,14.4,��
2024/05/12,14:00,0.507,0.775,0.486,0.969,0.703,0.313,0.553,0.515,��쓌,13.8,��
2024/05/12,14:10,0.508,0.776,0.486,0.969,0.701,0.315,0.552,0.515,��쓌,12.7,��
2024/05/12,14:20,0.507,0.776,0.488,0.969,0.700,0.315,0.551,0.513,��쓌,10.5,��
2024/05/12,14:30,0.507,0.776,0.487,0.969,0.703,0.315,0.552,0.515,��쓌,11.0,��
2024/05/12,14:40,0.507,0.777,0.486,0.968,0.704,0.315,0.552,0.515,��쓌,11.9,��
2024/05/12,14:50,0.507,0.775,0.488,0.969,0.699,0.314,0.551,0.516,��쓌,10.9,��
2024/05/12,15:00,0.509,0.773,0.488,0.969,0.703,0.313,0.551,0.515,��쓌,10.5,��
2024/05/12,15:10,0.506,0.774,0.486,0.968,0.703,0.315,0.551,0.515,��쓌,11.6,��
2024/05/12,15:20,0.508,0.776,0.488,0.969,0.702,0.314,0.553,0.516,��,11.3,��
2024/05/12,15:30,0.507,0.775,0.487,0.968,0.701,0.315,0.552,0.516,��,7.9,��
2024/05/12,15:40,0.507,0.774,0.487,0.968,0.704,0.314,0.554,0.515,��,10.3,��
2024/05/12,15:50,0.507,0.776,0.489,0.969,0.702,0.315,0.552,0.516,��,11.0,��
2024/05/12,16:00,0.508,0.775,0.488,0.967,0.704,0.313,0.552,0.515,��,15.3,��
2024/05/12,16:10,0.508,0.774,0.487,0.968,0.702,0.314,0.552,0.514,��,12.4,��
2024/05/12,16:20,0.508,0.773,0.487,0.968,0.703,0.314,0.551,0.516,��,14.1,��
2024/05/12,16:30,0.508,0.774,0.486,0.968,0.702,0.314,0.550,0.514,��,13.1,��
2024/05/12,16:40,0.507,0.774,0.486,0.970,0.704,0.316,0.551,0.515,��,12.1,��
2024/05/12,16:50,0.509,0.774,0.485,0.971,0.702,0.314,0.552,0.515,��,12.5,��
2024/05/12,17:00,0.507,0.773,0.485,0.970,0.703,0.315,0.552,0.515,��,13.0,��
2024/05/12,17:10,0.507,0.774,0.486,0.972,0.702,0.313,0.553,0.514,��,11.9,��
2024/05/12,17:20,0.507,0.774,0.485,0.972,0.703,0.314,0.550,0.516,��,12.0,��
2024/05/12,17:30,0.506,0.774,0.486,0.970,0.702,0.314,0.552,0.516,��,12.7,��
2024/05/12,17:40,0.508,0.773,0.487,0.971,0.701,0.314,0.550,0.515,��,12.7,��
2024/05/12,17:50,0.507,0.773,0.487,0.973,0.702,0.315,0.551,0.515,��,10.7,��
2024/05/12,18:00,0.507,0.774,0.487,0.972,0.702,0.316,0.551,0.517,��,10.6,��
2024/05/12,18:10,0.507,0.776,0.487,0.972,0.703,0.314,0.552,0.516,��,10.9,��
2024/05/12,18:20,0.507,0.773,0.487,0.971,0.702,0.314,0.551,0.516,��쐼,9.4,��
2024/05/12,18:30,0.508,0.774,0.487,0.973,0.702,0.313,0.551,0.515,��,11.7,��
2024/05/12,18:40,0.509,0.775,0.487,0.970,0.703,0.314,0.552,0.516,��,11.7,��
2024/05/12,18:50,0.509,0.774,0.486,0.971,0.702,0.315,0.552,0.516,��,10.2,��
2024/05/12,19:00,0.510,0.773,0.486,0.974,0.703,0.315,0.552,0.516,��,11.4,��
2024/05/12,19:10,0.508,0.775,0.486,0.973,0.701,0.314,0.552,0.516,��,10.5,��
2024/05/12,19:20,0.507,0.774,0.486,0.970,0.702,0.315,0.553,0.517,��,10.5,��
2024/05/12,19:30,0.508,0.773,0.488,0.974,0.700,0.315,0.553,0.518,��,10.2,��
2024/05/12,19:40,0.507,0.775,0.487,0.975,0.703,0.315,0.552,0.517,��,10.5,��
2024/05/12,19:50,0.506,0.776,0.488,0.971,0.702,0.315,0.552,0.517,��,10.0,��
2024/05/12,20:00,0.508,0.776,0.488,0.975,0.705,0.313,0.553,0.517,��,10.5,��
2024/05/12,20:10,0.507,0.773,0.487,0.974,0.704,0.314,0.552,0.517,��,10.0,�L
2024/05/12,20:20,0.508,0.774,0.488,0.972,0.704,0.315,0.553,0.517,��,11.3,��
2024/05/12,20:30,0.507,0.776,0.486,0.973,0.702,0.314,0.552,0.517,��,10.9,��
2024/05/12,20:40,0.509,0.775,0.488,0.972,0.703,0.314,0.552,0.518,��,12.8,��
2024/05/12,20:50,0.508,0.774,0.485,0.973,0.703,0.313,0.553,0.516,��,13.0,��
2024/05/12,21:00,0.507,0.774,0.488,0.974,0.704,0.314,0.551,0.517,��,13.3,��
2024/05/12,21:10,0.507,0.777,0.489,0.974,0.702,0.315,0.551,0.517,��,13.0,��
2024/05/12,21:20,0.507,0.775,0.487,0.973,0.703,0.315,0.552,0.517,��,13.3,��
2024/05/12,21:30,0.507,0.775,0.488,0.973,0.703,0.314,0.552,0.517,��,12.0,�L
2024/05/12,21:40,0.505,0.776,0.487,0.973,0.703,0.312,0.551,0.517,��,10.5,�L
2024/05/12,21:50,0.508,0.775,0.489,0.972,0.702,0.314,0.550,0.518,��,12.1,��
2024/05/12,22:00,0.508,0.776,0.487,0.975,0.702,0.313,0.551,0.517,��,11.6,��
2024/05/12,22:10,0.508,0.775,0.489,0.973,0.704,0.315,0.552,0.517,��,10.2,�L
2024/05/12,22:20,0.507,0.776,0.487,0.972,0.701,0.313,0.550,0.518,��,10.5,�L
2024/05/12,22:30,0.507,0.777,0.488,0.974,0.701,0.314,0.551,0.519,��,11.0,��
2024/05/12,22:40,0.507,0.776,0.487,0.972,0.702,0.315,0.553,0.518,��,10.6,��
2024/05/12,22:50,0.508,0.777,0.488,0.974,0.702,0.314,0.552,0.517,��,11.1,��
2024/05/12,23:00,0.508,0.778,0.488,0.974,0.702,0.314,0.551,0.518,��,10.9,��
2024/05/12,23:10,0.508,0.778,0.488,0.972,0.704,0.314,0.553,0.517,��,10.2,��
2024/05/12,23:20,0.507,0.778,0.489,0.972,0.705,0.315,0.554,0.518,��,11.6,��
2024/05/12,23:30,0.509,0.779,0.487,0.973,0.703,0.314,0.553,0.517,��,10.0,��
2024/05/12,23:40,0.508,0.777,0.490,0.973,0.703,0.314,0.554,0.516,��,10.2,��
2024/05/12,23:50,0.507,0.778,0.491,0.974,0.705,0.315,0.553,0.518,��,10.2,��
